• In France
  • List of Countries
  • For 7 days
  • Water Temperature
  • Satellite Maps
  • Weather Map
  • Weather Widgets
  • user-avatar
    Login

    Hourly Weather Escaldes-Engordany

    Today, 15 November, Thursday

    Time Temperature Precipitation Wind Pressure Humidity
    00:00 +5°C° 0 mm 2 mps 641 mmHg 79%
    01:00 +4°C° 0 mm 2 mps 641 mmHg 80%
    02:00 +4°C° 0 mm 2 mps 640 mmHg 82%
    03:00 +4°C° 0 mm 2 mps 640 mmHg 83%
    04:00 +4°C° 0 mm 2 mps 640 mmHg 84%
    05:00 +4°C° 0 mm 2 mps 640 mmHg 85%
    06:00 +4°C° 0 mm 2 mps 640 mmHg 85%
    07:00 +6°C° 0 mm 2 mps 640 mmHg 81%
    08:00 +7°C° 0 mm 2 mps 641 mmHg 78%
    09:00 +8°C° 0 mm 2 mps 642 mmHg 74%
    10:00 +9°C° 0.1 mm 2 mps 642 mmHg 71%
    11:00 +10°C° 0.1 mm 2 mps 642 mmHg 68%
    12:00 +12°C° 0.1 mm 2 mps 642 mmHg 66%
    13:00 +12°C° 0.3 mm 2 mps 642 mmHg 69%
    14:00 +10°C° 0.3 mm 2 mps 642 mmHg 72%
    15:00 +10°C° 0.3 mm 2 mps 642 mmHg 75%
    16:00 +10°C° 0.1 mm 1 mps 641 mmHg 81%
    17:00 +8°C° 0.1 mm 1 mps 641 mmHg 86%
    18:00 +7°C° 0.1 mm 1 mps 640 mmHg 91%
    19:00 +7°C° 0 mm 1 mps 641 mmHg 91%
    20:00 +7°C° 0 mm 1 mps 641 mmHg 91%
    21:00 +6°C° 0 mm 1 mps 641 mmHg 90%
    22:00 +6°C° 0 mm 1 mps 641 mmHg 89%
    23:00 +6°C° 0 mm 1 mps 641 mmHg 88%

    Tomorrow, 16 November, Friday

    Time Temperature Precipitation Wind Pressure Humidity
    00:00 +6°C° 0 mm 1 mps 641 mmHg 87%
    01:00 +6°C° 0.1 mm 1 mps 641 mmHg 87%
    02:00 +6°C° 0.1 mm 1 mps 641 mmHg 86%
    03:00 +6°C° 0.1 mm 1 mps 641 mmHg 85%
    04:00 +6°C° 0 mm 1 mps 640 mmHg 85%
    05:00 +6°C° 0 mm 1 mps 640 mmHg 85%
    06:00 +6°C° 0 mm 1 mps 640 mmHg 85%
    07:00 +7°C° 0 mm 1 mps 641 mmHg 82%
    08:00 +8°C° 0 mm 1 mps 641 mmHg 79%
    09:00 +9°C° 0 mm 1 mps 642 mmHg 76%
    10:00 +10°C° 0 mm 1 mps 642 mmHg 73%
    11:00 +10°C° 0 mm 2 mps 642 mmHg 70%
    12:00 +12°C° 0 mm 2 mps 642 mmHg 67%
    13:00 +10°C° 0.1 mm 2 mps 642 mmHg 69%
    14:00 +10°C° 0.1 mm 2 mps 642 mmHg 72%
    15:00 +10°C° 0.1 mm 2 mps 641 mmHg 74%
    16:00 +8°C° 0.1 mm 2 mps 641 mmHg 81%
    17:00 +8°C° 0.1 mm 1 mps 641 mmHg 87%
    18:00 +6°C° 0.1 mm 1 mps 640 mmHg 93%
    19:00 +6°C° 0 mm 1 mps 640 mmHg 93%
    20:00 +6°C° 0 mm 1 mps 640 mmHg 93%
    21:00 +6°C° 0 mm 1 mps 640 mmHg 92%
    22:00 +6°C° 0 mm 1 mps 640 mmHg 92%
    23:00 +5°C° 0 mm 1 mps 640 mmHg 92%

    Day after tomorrow, 17 November, Saturday

    Time Temperature Precipitation Wind Pressure Humidity
    00:00 +5°C° 0 mm 1 mps 640 mmHg 91%
    01:00 +5°C° 0 mm 1 mps 639 mmHg 91%
    02:00 +5°C° 0 mm 1 mps 639 mmHg 91%
    03:00 +5°C° 0 mm 1 mps 639 mmHg 90%
    04:00 +5°C° 0 mm 1 mps 639 mmHg 90%
    05:00 +4°C° 0 mm 1 mps 639 mmHg 90%
    06:00 +4°C° 0 mm 1 mps 638 mmHg 89%
    07:00 +5°C° 0 mm 1 mps 639 mmHg 86%
    08:00 +6°C° 0 mm 1 mps 639 mmHg 83%
    09:00 +7°C° 0 mm 1 mps 639 mmHg 80%
    10:00 +6°C° 0.1 mm 2 mps 639 mmHg 78%
    11:00 +7°C° 0.1 mm 2 mps 639 mmHg 76%
    12:00 +7°C° 0.1 mm 2 mps 639 mmHg 74%
    13:00 +7°C° 0.2 mm 2 mps 639 mmHg 77%
    14:00 +6°C° 0.2 mm 2 mps 638 mmHg 80%
    15:00 +6°C° 0.2 mm 2 mps 638 mmHg 83%
    16:00 +5°C° 0.3 mm 2 mps 637 mmHg 85%
    17:00 +4°C° 0.3 mm 2 mps 637 mmHg 87%
    18:00 +4°C° 0.3 mm 2 mps 637 mmHg 90%
    19:00 +2°C° 0.4 mm 3 mps 637 mmHg 90%
    20:00 +2°C° 0.4 mm 3 mps 637 mmHg 90%
    21:00 +2°C° 0.4 mm 3 mps 636 mmHg 90%
    22:00 +2°C° 0.5 mm 3 mps 636 mmHg 89%
    23:00 +2°C° 0.5 mm 3 mps 636 mmHg 89%

    18 November, Sunday

    Time Temperature Precipitation Wind Pressure Humidity
    00:00 +3°C° 0.5 mm 2 mps 635 mmHg 89%
    01:00 +2°C° 0.5 mm 2 mps 635 mmHg 89%
    02:00 +2°C° 0.5 mm 2 mps 635 mmHg 89%
    03:00 +2°C° 0.5 mm 2 mps 635 mmHg 88%
    04:00 +2°C° 0.7 mm 2 mps 634 mmHg 89%
    05:00 +2°C° 0.7 mm 2 mps 634 mmHg 89%
    06:00 +2°C° 0.7 mm 2 mps 634 mmHg 89%
    07:00 +1°C° 0.8 mm 3 mps 635 mmHg 88%
    08:00 +2°C° 0.8 mm 3 mps 635 mmHg 86%
    09:00 +2°C° 0.8 mm 3 mps 635 mmHg 85%
    10:00 +3°C° 1 mm 3 mps 635 mmHg 84%
    11:00 +3°C° 1 mm 3 mps 635 mmHg 83%
    12:00 +4°C° 1 mm 3 mps 635 mmHg 81%
    13:00 +3°C° 0.9 mm 3 mps 635 mmHg 84%
    14:00 +3°C° 0.9 mm 3 mps 635 mmHg 86%
    15:00 +3°C° 0.9 mm 3 mps 634 mmHg 88%
    16:00 +2°C° 0.3 mm 3 mps 634 mmHg 89%
    17:00 +2°C° 0.3 mm 3 mps 634 mmHg 91%
    18:00 +1°C° 0.3 mm 3 mps 633 mmHg 92%
    19:00 +2°C° 0.2 mm 2 mps 633 mmHg 91%
    20:00 +2°C° 0.2 mm 2 mps 633 mmHg 90%
    21:00 +2°C° 0.2 mm 2 mps 634 mmHg 90%
    22:00 +2°C° 0.1 mm 2 mps 633 mmHg 89%
    23:00 +2°C° 0.1 mm 2 mps 633 mmHg 89%

    19 November, Monday

    Time Temperature Precipitation Wind Pressure Humidity
    00:00 +2°C° 0.1 mm 2 mps 633 mmHg 89%
    01:00 +2°C° 0 mm 2 mps 633 mmHg 89%
    02:00 +2°C° 0 mm 2 mps 632 mmHg 89%
    03:00 +2°C° 0 mm 2 mps 632 mmHg 89%
    04:00 +2°C° 0 mm 2 mps 632 mmHg 88%
    05:00 +2°C° 0 mm 2 mps 631 mmHg 87%
    06:00 +2°C° 0 mm 1 mps 631 mmHg 86%
    07:00 +4°C° 0 mm 1 mps 632 mmHg 84%
    08:00 +5°C° 0 mm 1 mps 632 mmHg 82%
    09:00 +6°C° 0 mm 1 mps 632 mmHg 80%
    10:00 +6°C° 0 mm 1 mps 632 mmHg 78%
    11:00 +7°C° 0 mm 1 mps 632 mmHg 75%
    12:00 +8°C° 0 mm 1 mps 632 mmHg 72%
    13:00 +8°C° 0 mm 1 mps 632 mmHg 74%
    14:00 +8°C° 0 mm 1 mps 631 mmHg 76%
    15:00 +7°C° 0 mm 1 mps 631 mmHg 78%
    16:00 +6°C° 0 mm 1 mps 630 mmHg 83%
    17:00 +5°C° 0 mm 1 mps 630 mmHg 88%
    18:00 +3°C° 0 mm 1 mps 629 mmHg 93%
    19:00 +3°C° 0 mm 1 mps 629 mmHg 93%
    20:00 +2°C° 0 mm 1 mps 629 mmHg 92%
    21:00 +2°C° 0 mm 1 mps 629 mmHg 92%
    22:00 +2°C° 0 mm 1 mps 629 mmHg 90%
    23:00 +1°C° 0 mm 1 mps 628 mmHg 87%

    20 November, Tuesday

    Time Temperature Precipitation Wind Pressure Humidity
    00:00 +1°C° 0 mm 1 mps 628 mmHg 85%
    01:00 +1°C° 0 mm 1 mps 628 mmHg 83%
    02:00 0°C° 0 mm 1 mps 627 mmHg 81%
    03:00 -2°C° 0 mm 2 mps 627 mmHg 79%
    04:00 -2°C° 0 mm 2 mps 626 mmHg 79%
    05:00 -2°C° 0 mm 2 mps 626 mmHg 78%
    06:00 -3°C° 0 mm 2 mps 626 mmHg 77%
    07:00 +1°C° 0 mm 1 mps 627 mmHg 75%
    08:00 +2°C° 0 mm 1 mps 627 mmHg 73%
    09:00 +3°C° 0 mm 1 mps 628 mmHg 71%
    10:00 +4°C° 0 mm 1 mps 628 mmHg 70%
    11:00 +4°C° 0 mm 2 mps 628 mmHg 70%
    12:00 +4°C° 0 mm 2 mps 628 mmHg 69%
    13:00 +4°C° 0 mm 2 mps 627 mmHg 71%
    14:00 +3°C° 0 mm 2 mps 627 mmHg 73%
    15:00 +3°C° 0 mm 2 mps 627 mmHg 75%
    16:00 +1°C° 0 mm 2 mps 627 mmHg 79%
    17:00 -1°C° 0 mm 2 mps 627 mmHg 84%
    18:00 -3°C° 0 mm 2 mps 627 mmHg 88%
    19:00 -3°C° 0 mm 2 mps 627 mmHg 87%
    20:00 -4°C° 0 mm 2 mps 627 mmHg 86%
    21:00 -4°C° 0 mm 2 mps 627 mmHg 84%
    22:00 -5°C° 0 mm 2 mps 627 mmHg 83%
    23:00 -5°C° 0 mm 2 mps 627 mmHg 83%
    Show more